Location: Csohesd
(46.2500°N, 22.6167°E)
Time: 12:12:32
(UTC+00:00)

Meteor 1-21 Rocket - Pass Details

Date: 21 October 2021
Orbit: 834 x 907 km, 81.2° (Epoch: 06 December)

Event Time Altitude Azimuth Distance (km) Brightness Sun altitude
Rises 16:02:01 0° 351° (N) 3,506 7.4 -5.8°
Reaches altitude 10° 16:04:30 10° 354° (N) 2,571 6.7 -6.2°
Maximum altitude 16:10:21 66° 77° (ENE) 979 4.3 -7.2°
Drops below altitude 10° 16:16:13 10° 159° (SSE) 2,581 6.6 -8.2°
Sets 16:18:42 0° 162° (SSE) 3,520 7.3 -8.7°
